www.pogodaiklimat.ru

Погода и климат >> Архив погоды >> Россия >> Дагестан >> Махачкала


АРХИВ ПОГОДЫ в Махачкале

Время (UTC), дата Ветер
(напр.,м/с)
 
Видим.   Явления Облачность Т
(С)
Тd
(С)
f
(%)
Тe
(С)
Тes
(С)
Комфортность P
(гПа)
Po
(гПа)
Тmin
(С)
Tmax
(С)
R
(мм)
R24
(мм)
S
(см)
21 16.11 СЗ 1 4000 м дымка 10/0
[Ac As]
+7.6 +4.8 82 +7 +7 по сезону 1027.5 1029.7
00 17.11 З 2 4000 м дымка 10/0
[Ac As]
+6.8 +4.3 84 +5 +5 по сезону 1027.4 1029.6
03 17.11 СЗ 2 4000 м дымка 10/0
[Ac As]
+6.2 +3.7 84 +4 +4 по сезону 1027.3 1029.6 +6.2
06 17.11 З 2 4000 м дымка 10/8 600 м
[Sc Ac As]
+6.2 +3.4 82 +4 +4 по сезону 1028.4 1030.6 +5.8
09 17.11 З 3 4000 м дымка 10/8 600 м
[Sc Ac As]
+7.5 +2.3 70 +5 +5 по сезону 1027.9 1030.1
12 17.11 З 2 4000 м дымка 10/8 600 м
[Sc Ac As]
+8.0 +2.5 68 +6 +6 по сезону 1027.9 1030.1
15 17.11 СЗ 2 4000 м дымка 10/8 600 м
[Sc Ac As]
+6.8 +2.3 73 +5 +5 по сезону 1029.1 1031.3 +8.1
18 17.11 З 1 4000 м дымка 10/8 600 м
[Sc Ac As]
+6.5 +2.2 74 +6 +6 по сезону 1029.2 1031.4
21 17.11 СЗ 1 4000 м дымка 10/4 600 м
[Sc Ac As]
+6.7 +3.4 79 +6 +6 по сезону 1028.0 1030.2
00 18.11 ЮВ 2 4000 м дымка 10/5 600 м
[Sc Ac As]
+9.2 +4.8 74 +8 +8 тепло 1026.6 1028.8
03 18.11 ЮВ 3 4000 м дымка 10/8 600 м
[Sc Ac As]
+9.0 +6.2 83 +7 +7 тепло 1025.3 1027.6 +6.3
06 18.11 ЮВ 5-11
{11}
10 км 3/0
[Ci fib]
+11.0 +6.8 75 +8 +9 тепло 1023.8 1026.1
09 18.11 В 5-11
{15}
10 км 4/0
[Ci sp]
+12.2 +8.5 78 +10 +12 тепло 1022.0 1024.2
12 18.11 ЮВ 7-14
{15}
4000 м слабая морось 10/10 600 м
[St]
+11.7 +9.9 89 +8 +8 по сезону 1021.5 1023.7
15 18.11 ЮВ 4
{14}
4000 м слабая морось 10/10 600 м
[St]
+11.7 +9.7 88 +9 +9 тепло 1021.1 1023.3 +12.8 0.0
18 18.11 ЮВ 1 4000 м дымка {морось} 10/4 600 м
[Sc Ac As]
+11.6 +10.1 91 +11 +11 тепло 1020.5 1022.7
21 18.11 З 3 н/о н/о +8.6 +5.8 83 +6 +6 по сезону 1019.4 1021.7
00 19.11 З 3 4000 м дымка 9/4 600 м
[Sc Ac As Ci fib]
+8.2 +4.8 79 +6 +6 по сезону 1018.4 1020.6
03 19.11 З 2 4000 м 10/4 600 м
[Sc Ac As]
+7.8 +4.1 77 +6 +6 по сезону 1017.8 1020.0 +7.8
06 19.11 З 2 4000 м дымка 10/4 600 м
[Sc Ac As]
+9.0 +4.8 75 +7 +8 тепло 1017.6 1019.8 +7.7
09 19.11 В 1 4000 м дымка 10/4 600 м
[Sc Ac As]
+11.3 +6.7 73 +11 +12 тепло 1016.3 1018.5
12 19.11 В 3 4000 м дымка 10/4 600 м
[Sc Ac As]
+12.1 +8.5 79 +11 +11 тепло 1015.2 1017.4
15 19.11 ЮВ 2 4000 м дымка 10/4 600 м
[Sc Ac As]
+12.0 +9.0 82 +11 +11 тепло 1014.8 1017.0 +12.3
18 19.11 ЮВ 2 4000 м дымка 10/4 600 м
[Sc Ac As]
+12.0 +8.9 81 +11 +11 тепло 1014.4 1016.6
21 19.11 СВ 1 4000 м дымка 10/4 600 м
[Sc Ac As]
+11.9 +9.3 84 +12 +12 тепло 1012.3 1014.5
00 20.11 З 1 4000 м дымка 10/4 600 м
[Sc Ac As]
+11.0 +7.8 81 +11 +11 тепло 1011.1 1013.2
03 20.11 З 4 4000 м дымка 10/4 600 м
[Sc Ac As]
+10.3 +6.8 79 +8 +8 тепло 1011.1 1013.3 +10.2
06 20.11 СЗ 5 4000 м дымка 10/0
[As op]
+11.2 +7.4 77 +9 +9 тепло 1011.3 1013.5
09 20.11 СЗ 4 4000 м дымка 6/0
[Ac trans Ci fib]
+14.5 +9.1 70 +13 +15 тепло 1009.9 1012.0
12 20.11 СЗ 4 4000 м дымка 3/0
[Ci fib]
+14.0 +9.1 72 +13 +13 тепло 1009.5 1011.7
15 20.11 З 2 4000 м дымка 9/4 600 м
[Sc Ac cast Ci fib]
+10.4 +8.1 86 +9 +9 тепло 1010.6 1012.7 +15.1
18 20.11 З 3 4000 м дымка 10/0
[Ac As]
+10.6 +8.1 85 +9 +9 тепло 1010.4 1012.6
21 20.11 В 2 4000 м дымка 10/5 600 м
[Sc Ac As]
+11.1 +9.1 87 +10 +10 тепло 1008.9 1011.1
00 21.11 ЮВ 3 4000 м дымка 10/0
[Ac As]
+11.5 +8.4 81 +10 +10 тепло 1006.9 1009.1
03 21.11 ЮВ 6-10
{11}
4000 м дымка 10/0
[Ac As]
+11.2 +8.2 82 +8 +8 тепло 1004.7 1006.8 +9.8
06 21.11 ЮВ 6-11
{13}
10 км 9/3 600 м
[Sc Ac As Ci fib]
+11.6 +8.3 80 +9 +9 тепло 1003.6 1005.8
09 21.11 ЮВ 8-12
{13}
10 км 9/4 600 м
[Sc Ac As Ci fib]
+12.4 +8.7 78 +9 +10 тепло 1000.8 1003.0
12 21.11 ЮВ 7-11
{14}
10 км 9/4 600 м
[Sc Ac As Ci fib]
+12.4 +9.4 82 +10 +10 тепло 998.9 1001.1
15 21.11 ЮВ 3
{12}
4000 м дымка 10/0
[Ac und]
+11.7 +9.3 85 +10 +10 тепло 998.0 1000.1 +12.5
18 21.11 ЮЗ 1 4000 м дымка 10/0
[Ac As]
+9.7 +8.1 90 +9 +9 тепло 997.0 999.2
21 21.11 ЮЗ 1 4000 м дымка 10/4 600 м
[Sc Ac As]
+10.2 +8.7 90 +10 +10 тепло 995.2 997.4
00 22.11 З 7-11
{12}
4000 м дымка 10/4 600 м
[Sc Ac As]
+10.2 +8.5 89 +6 +6 тепло 999.3 1001.5
03 22.11 З 9-14
{19}
10 км 8/0
[Ac As]
+13.5 +5.8 60 +11 +11 тепло 1002.7 1004.9 +9.5
06 22.11 СЗ 10-15
{19}
20 км 9/0
[Ac cast Ci fib]
+10.3 +3.0 61 +6 +6 по сезону 1007.2 1009.4
09 22.11 СЗ 10-18
{24}
20 км 9/4 600 м
[Sc Ac As]
+9.6 +0.6 53 +5 +5 по сезону 1008.7 1010.9
12 22.11 З 11-19
{21}
10 км слабый дождь 10/10 600 м
[Frnb Ns]
+5.0 +1.5 78 -2 -2 очень
холодно
1012.1 1014.3
15 22.11 З 7-11
{19}
4000 м слабый дождь 10/10 600 м
[Frnb Ns]
+5.7 +0.2 68 +1 +1 прохладно 1014.6 1016.8 +13.6 0.6
18 22.11 З 4
{12}
4000 м дымка {дождь} 10/6 600 м
[Sc Ac As]
+6.0 -1.0 61 +3 +3 по сезону 1015.3 1017.5
21 22.11 З 4
{12}
10 км 10/4 600 м
[Sc Ac As]
+5.4 -1.1 63 +2 +2 по сезону 1015.6 1017.8
00 23.11 З 3 10 км 10/4 600 м
[Sc Ac As]
+5.5 -2.7 55 +3 +3 по сезону 1015.2 1017.4
03 23.11 СВ 1 10 км 9/4 600 м
[Sc Ac As Ci fib]
+4.4 -1.2 67 +3 +3 по сезону 1014.5 1016.7 0.0
06 23.11 ЮВ 3 10 км ясно +7.5 -2.4 49 +5 +6 по сезону 1013.9 1016.1 +2.1
09 23.11 В 4 10 км 8/4 600 м
[Sc Ac As Ci fib]
+8.6 +1.0 59 +6 +7 по сезону 1012.4 1014.6
12 23.11 В 4
{10}
10 км 8/4 600 м
[Sc Ac As Ci fib]
+8.7 +2.1 63 +6 +6 по сезону 1012.8 1015.0
15 23.11 В 2 10 км 10/3 600 м
[Sc Ac As]
+8.3 +1.1 60 +7 +7 по сезону 1015.2 1017.4 +9.0

 

Местоположение метеостанции Махачкала (Дагестан, Россия): широта 43.02 долгота 47.48 высота над уровнем моря -19 м.

В архиве по умолчанию представлена погода в Махачкале за последнюю неделю. Архивные данные за месяц целиком и за предыдущие месяцы, начиная с января 2011 года, Вы можете получить, выбрав интересующий диапазон дат из раскрывающегося списка и нажав кнопку "Ввод!".

Внимание! Время в таблицах - всемирное. Для получения местного времени необходимо прибавить поправку, которая в Махачкале равна 3 ч.

Смотрите также архив погоды в соседних городах и на ближайших метеорологических станциях:

Погода в Буйнакске (Дагестан, Россия) (37 км)
Погода в Сергокале (Дагестан, Россия) (65 км)
Погода в Изберге (Дагестан, Россия) (65 км)
Погода в Куппе (Дагестан, Россия) (73 км)
Погода в Хасавюрте (Дагестан, Россия) (77 км)
Погода в Гунибе (Дагестан, Россия) (81 км)
Погода в Хунзахе (Дагестан, Россия) (81 км)
Погода в Бабаюрте (Дагестан, Россия) (86 км)
Погода в Кумухе (Дагестан, Россия) (104 км)
Погода в Шелковской (Чечня, Россия) (106 км)

Пояснения к столбцам:

Ветер - указаны скорость ветра в м/с - средняя за 10 мин, порывы в срок и между сроками (в фигурных скобках) и направление, откуда дует ветер: С - северный, СВ - северо-восточный, В - восточный, ЮВ - юго-восточный, Ю - южный, ЮЗ - юго-западный, З - западный, СЗ - северо-западный.
Видимость - горизонтальная дальность видимости в метрах или километрах. При видимости от 1 до 10 км при отсутствии осадков обычно наблюдается дымка, при ухудшении видимости до 1 км и менее - туман. В сухую погоду видимость может ухудшаться дымом, пылью или мглою.
Явления - указаны атмосферные явления, наблюдавшиеся в срок или в последний час перед сроком; фигурными скобками обозначены явления, наблюдавшиеся между сроками (за 1-3 часа до срока); квадратными скобками обозначены град или гололедные отложения с указанием их диаметра в мм.
Облачность - указаны через наклонную черту общая и нижняя облачность в баллах и высота нижней границы облаков в метрах; квадратными скобками обозначены формы облаков: Ci - перистые, Cs - перисто-слоистые, Cc - перисто-кучевые, Ac - высококучевые, As - высокослоистые, Sc - слоисто-кучевые, Ns - слоисто-дождевые, Cu - кучевые, Cb - кучево-дождевые. Подробнее классификацию облаков см. в Атласе облаков (PDF).
T - Температура воздуха - температура, измеренная на высоте 2 м над землей.
Td - Температура точки росы - температура, при понижении до которой содержащийся в воздухе водяной пар достигнет насыщения.
f - Относительная влажность воздуха - влажноcть воздуха, измеренная на высоте 2 м над землей.
Te - Эффективная температура - температура, которую ощущает одетый по сезону человек в тени. Характеристика душности погоды. При расчете учитывается влияние влажности воздуха и скорости ветра на теплоощущения человека.
Tes - Эффективная температура на солнце - температура, которую ощущает человек, с поправкой на солнечный нагрев. Характеристика знойности погоды. Зависит от высоты солнца над горизонтом, облачности и скорости ветра. Ночью, в пасмурную погоду, а также при ветре 12 м/с и более поправка равна нулю.
P - Атмосферное давление - приведенное к уровню моря атмосферное давление.
Po - Атмосферное давление - измеренное на уровне метеостанции атмосферное давление.
Tmin - Минимальная температура - минимум температуры воздуха на высоте 2 м над землей.
Tmax - Максимальная температура - максимум температуры воздуха на высоте 2 м над землей.
R - Количество осадков - Количество выпавших осадков за период времени, мм. При наведении курсора мыши на число - период времени, за который выпало указанное количество осадков.
R24 - Количество осадков - Количество выпавших осадков за 24 часа, мм.
S - Снежный покров - Высота снежного покрова, см. При наведении курсора мыши на число - состояние снежного покрова и степень покрытия местности в баллах.